This is the latest recevied weather packets stored in our database for station/object KG4IFE-13. If no packets are shown the sender has not sent any weather packets the latest 10 day(s).
| Time | Temp. | Humidity | Pressure | Rain* | Wind** | Luminosity | Snow |
|---|---|---|---|---|---|---|---|
| 1777707622 | 10.56° C | 67% | 1013.5 hPa | - | - | - | - |
| 1777707320 | 10.56° C | 67% | 1013.6 hPa | - | - | - | - |
| 1777706728 | 10.56° C | 67% | 1013.6 hPa | - | - | - | - |
| 1777704309 | 11.11° C | 65% | 1013.8 hPa | - | - | - | - |
| 1777698592 | 12.22° C | 64% | 1013.9 hPa | - | - | - | - |
| 1777697107 | 12.78° C | 65% | 1014 hPa | - | - | - | - |
| 1777694075 | 13.33° C | 63% | 1013.8 hPa | - | - | - | - |
| 1777691979 | 14.44° C | 59% | 1013.1 hPa | - | - | - | - |
| 1777691366 | 15° C | 60% | 1013 hPa | - | - | - | - |
| 1777688657 | 15.56° C | 61% | 1012.3 hPa | - | - | - | - |
| 1777686852 | 15.56° C | 61% | 1011.7 hPa | - | - | - | - |
| 1777686550 | 15.56° C | 59% | 1011.7 hPa | - | - | - | - |
| 1777685647 | 15.56° C | 60% | 1011.6 hPa | - | - | - | - |
| 1777682347 | 16.11° C | 57% | 1010.8 hPa | - | - | - | - |
| 1777680230 | 16.67° C | 55% | 1009.8 hPa | - | - | - | - |
| 1777677523 | 17.22° C | 53% | 1009.9 hPa | - | - | - | - |
| 1777676919 | 17.78° C | 52% | 1009.9 hPa | - | - | - | - |
| 1777676619 | 17.78° C | 52% | 1009.9 hPa | - | - | - | - |
| 1777676026 | 17.78° C | 52% | 1009.9 hPa | - | - | - | - |
| 1777674811 | 18.33° C | 51% | 1009.9 hPa | - | - | - | - |
| 1777673930 | 18.33° C | 50% | 1010 hPa | - | - | - | - |
| 1777670918 | 18.89° C | 49% | 1010.4 hPa | - | - | - | - |
| 1777669413 | 18.89° C | 48% | 1010.5 hPa | - | - | - | - |
| 1777667588 | 19.44° C | 46% | 1010.9 hPa | - | - | - | - |
| 1777664598 | 19.44° C | 45% | 1011.9 hPa | - | - | - | - |
* Rain since midnight (hover to see other rain measurements)
** Current wind speed in m/s (hover to see current wind gust speed)